sat.trackr.live / text

‹ back to catalog

ICEYE-X43

NORAD 60539 · 2024-149BZ

PAYLOAD ACTIVE UNKNOWN

§ Identity

Operator
Country
BRAZ
Launch date
2024-08-16
Launch site
AFWTR
Launch vehicle
Mass (kg)
RCS (m²)

External: N2YO · Heavens-Above · Gunter

§ Orbital elements

Epoch: 2026-05-25T03:26:26.235744Z

Period
96.01 min
Inclination
97.6759°
Eccentricity
0.0005992
Mean motion
14.99799841 rev/d
Perigee alt
563.4 km
Apogee alt
571.7 km
Semi-major
6,945.7 km
B*
2.3502e-4
RAAN
222.4268°
Arg perigee
156.0794°
Mean anomaly
204.0709°
Rev number
9,666

§ Raw data

ICEYE-X431 60539U 24149BZ  26145.14335921  .00002849  00000+0  23502-3 0  99962 60539  97.6759 222.4268 0005992 156.0794 204.0709 14.99799841 96661

JSON: /api/v1/satellites/60539 · /tle

For live sub-satellite position, see the globe view (requires WebGL).

§ Visibility from observer

Set your observer location to see the next 7 days of passes ≥ 10°. The values pass through the URL so the page stays shareable.

No JS? Fill the form by hand. The geolocation button needs JavaScript.

§ Radio — SatNOGS DB

ModeDescriptionDownlinkUplink
S-band telemetry 2.264 GHz

1 transmitter · refreshed weekly from db.satnogs.org